CZ-6A DEB

Satellite information

Favourite Embed

Satellite Type and Status

DEBRISIN ORBIT

Key statistics

Satellite CZ-6A DEB at a glance.

Uptime

969

Days in orbit

Revolutions

≈ 14.3

Per day

Orbit

SSO

Sun Synchronous Orbit

Inclination

98.8

Latest

Satellite identification and parameters

Extended collection of information and parameters for CZ-6A DEB.

Object identification

Identified? True

Debris? True

Object name: CZ-6A DEB

International designator: 2022-151RY

Object number (NORAD): 54935

Object ID (CCSDS): 54935

Country: PEOPLES REPUBLIC OF CHINA (PRC)

Current information (Y/N): Y

RCS size: SMALL

Orbital parameters

Period: 100.673 minutes

Inclination: 98.7501 deg

SMA: 7168.607 km

Apoapsis: 791.726 km

Periapsis: 789.219 km

RAAN: 205.5351 deg

Eccentricy: 0.0001749

Argument of periapsis: 330.8809 deg

Mean anomaly: 29.2275 deg

Mean motion: 14.30377148 rev/day

Mean motion (dot): 0.00002302 rev/day2

B* drag term: 0.00090283 1/REarth

Two-line elements (TLE)

Creation date: July 6, 2025, 6:05 p.m.

Reference frame: TEME

Reference center: EARTH

Epoch: July 6, 2025, 12:10 p.m. UTC

TLE line 0: 0 CZ-6A DEB

TLE line 1: 1 54935U 22151RY 25187.50731776 .00002302 00000-0 90283-3 0 9998

TLE line 2: 2 54935 98.7501 205.5351 0001749 330.8809 29.2275 14.30377148137153

Live tracking on map

Real-time ground track for satellite CZ-6A DEB.

In-orbit conjunctions

A list of the most updated potential collisions computed for object CZ-6A DEB.

Target Orbit TCA Probability of collision Miss distance Type
DMSP 5D-2 F9 DEB SSO 2025-05-15 17:04:36 0.0001191484 158.0 (m) DEBRIS
SL-3 DEB LEO 2024-12-11 19:07:09 0.0001900653 89.0 (m) DEBRIS
COSMOS 158 LEO 2024-12-04 10:43:24 0.0001496243 628.0 (m) PAYLOAD
THORAD AGENA D DEB LEO 2024-11-16 20:52:51 0.001152333 245.0 (m) DEBRIS
FENGYUN 1C DEB SSO 2024-09-27 22:58:11 0.0001195919 62.0 (m) DEBRIS

Associated space launch

Chinese satellite reported for atmospheric/ocean/environmental/spatial parameter research purposes, details TBD.

CZ-6A DEB was lifted into orbit during the mission ‘Long March 6A | Yunhai 3’, on board a Long March 6A space rocket.

The launch took place on Nov. 11, 2022, 10:52 p.m. from Launch Complex 9A.

For more information about the launch, click the button.

Launch to space Long March 6A | Yunhai 3
Long March 6A | Yunhai 3

Agency: N/A

Status: Launch Successful

Launch date: Nov. 11, 2022, 10:52 p.m. UTC

Rocket: Long March 6A

Launch pad: Launch Complex 9A

Location: Taiyuan Satellite Launch Center, People's Republic of China

...

Latest news about this satellite

There are no fresh news available about this satellite. Check back as we update our databases every day.


Newsletter sign-up

Weekly statistics, charts and insights to help you stay on top of the space industry.